| time (UTC) | temp C | wind direction | speed KPH | gust KPH | rain 1hr cm | rain 24hr cm | rain mn cm | humidity % | barometer mb |
| 20260504231508 | 12 | 144 | 6.4 | 9.7 | 0.00 | 0.05 | 0.05 | 75 | 1003.3 |
| 20260504230006 | 12 | 173 | 4.8 | 9.7 | 0.00 | 0.05 | 0.05 | 74 | 1003.2 |
| 20260504224510 | 12 | 125 | 3.2 | 8.0 | 0.00 | 0.05 | 0.05 | 74 | 1003.0 |
| 20260504223004 | 12 | 116 | 4.8 | 8.0 | 0.00 | 0.05 | 0.05 | 75 | 1002.9 |
| 20260504221507 | 11 | 195 | 4.8 | 11.3 | 0.00 | 0.05 | 0.05 | 76 | 1002.9 |
| 20260504220003 | 11 | 200 | 9.7 | 16.1 | 0.00 | 0.05 | 0.05 | 75 | 1002.9 |
| 20260504214506 | 12 | 198 | 12.9 | 19.3 | 0.00 | 0.05 | 0.05 | 71 | 1002.8 |
| 20260504213003 | 12 | 193 | 11.3 | 19.3 | 0.00 | 0.05 | 0.05 | 72 | 1002.7 |
| 20260504211502 | 12 | 207 | 11.3 | 24.1 | 0.00 | 0.05 | 0.05 | 71 | 1002.7 |
| 20260504210002 | 12 | 179 | 14.5 | 25.7 | 0.00 | 0.05 | 0.05 | 69 | 1002.8 |
| 20260504204501 | 13 | 217 | 9.7 | 20.9 | 0.00 | 0.05 | 0.05 | 73 | 1002.8 |
| 20260504203002 | 13 | 176 | 12.9 | 25.7 | 0.00 | 0.05 | 0.05 | 73 | 1002.5 |
| 20260504201600 | 13 | 177 | 9.7 | 19.3 | 0.00 | 0.05 | 0.05 | 75 | 1002.5 |
| 20260504200104 | 13 | 189 | 14.5 | 20.9 | 0.00 | 0.05 | 0.05 | 77 | 1002.5 |
| 20260504194605 | 13 | 180 | 12.9 | 19.3 | 0.00 | 0.08 | 0.05 | 77 | 1002.6 |
| 20260504193057 | 12 | 172 | 9.7 | 16.1 | 0.00 | 0.08 | 0.05 | 81 | 1002.6 |
| 20260504191609 | 11 | 146 | 6.4 | 9.7 | 0.03 | 0.08 | 0.05 | 86 | 1002.7 |
| 20260504190053 | 10 | 167 | 3.2 | 8.0 | 0.05 | 0.08 | 0.05 | 91 | 1002.9 |
| 20260504184552 | 8 | 152 | 4.8 | 6.4 | 0.05 | 0.15 | 0.05 | 91 | 1003.2 |
| 20260504183053 | 7 | 178 | 4.8 | 11.3 | 0.05 | 0.15 | 0.05 | 92 | 1003.5 |
| 20260504181557 | 7 | 195 | 9.7 | 16.1 | 0.03 | 0.13 | 0.03 | 91 | 1003.7 |
| 20260504180051 | 7 | 179 | 12.9 | 24.1 | 0.00 | 0.10 | 0.00 | 89 | 1003.5 |
| 20260504174550 | 7 | 179 | 14.5 | 32.2 | 0.00 | 0.23 | 0.00 | 83 | 1003.3 |
| 20260504173047 | 8 | 170 | 22.5 | 37.0 | 0.00 | 0.23 | 0.00 | 82 | 1002.9 |
| 20260504171552 | 8 | 184 | 24.1 | 37.0 | 0.00 | 0.23 | 0.00 | 77 | 1002.8 |
| 20260504081532 | 5 | 250 | 11.3 | 19.3 | 0.00 | 1.63 | 0.00 | 78 | 1004.2 |
| 20260504050013 | 5 | 260 | 11.3 | 22.5 | 0.00 | 1.75 | 0.00 | 71 | 1003.0 |
| 20260504044520 | 5 | 240 | 8.0 | 22.5 | 0.00 | 1.75 | 0.00 | 70 | 1003.1 |
| 20260504043010 | 5 | 230 | 8.0 | 20.9 | 0.00 | 1.75 | 0.00 | 72 | 1003.1 |
| 20260504041512 | 5 | 179 | 9.7 | 24.1 | 0.00 | 1.75 | 0.00 | 70 | 1003.0 |
| 20260504040005 | 5 | 238 | 9.7 | 16.1 | 0.00 | 1.75 | 0.00 | 70 | 1002.8 |
| 20260504034504 | 5 | 240 | 8.0 | 16.1 | 0.00 | 1.75 | 1.75 | 71 | 1002.6 |
| 20260504033010 | 6 | 233 | 6.4 | 17.7 | 0.00 | 1.75 | 1.75 | 69 | 1002.5 |
| 20260504031504 | 6 | 278 | 11.3 | 19.3 | 0.00 | 1.75 | 1.75 | 66 | 1002.3 |
| 20260504030003 | 6 | 248 | 11.3 | 22.5 | 0.00 | 1.75 | 1.75 | 66 | 1002.2 |
| 20260504024503 | 6 | 283 | 9.7 | 22.5 | 0.00 | 1.75 | 1.75 | 65 | 1002.2 |
| 20260504023003 | 6 | 278 | 6.4 | 20.9 | 0.00 | 1.75 | 1.75 | 65 | 1002.1 |
| 20260504021503 | 6 | 233 | 9.7 | 22.5 | 0.00 | 1.75 | 1.75 | 64 | 1002.0 |
| 20260504020002 | 7 | 259 | 9.7 | 25.7 | 0.00 | 1.75 | 1.75 | 63 | 1001.9 |
| 20260504014502 | 7 | 260 | 14.5 | 24.1 | 0.00 | 1.75 | 1.75 | 63 | 1001.8 |
| 20260504013003 | 7 | 307 | 11.3 | 29.0 | 0.00 | 1.75 | 1.75 | 63 | 1001.6 |
| 20260504011603 | 7 | 229 | 12.9 | 29.0 | 0.00 | 1.75 | 1.75 | 63 | 1001.3 |
| 20260504010106 | 7 | 277 | 11.3 | 32.2 | 0.00 | 1.75 | 1.75 | 65 | 1001.2 |
| 20260504004609 | 7 | 282 | 12.9 | 27.4 | 0.00 | 1.75 | 1.75 | 65 | 1000.9 |
| 20260504003057 | 7 | 266 | 12.9 | 25.7 | 0.00 | 1.75 | 1.75 | 68 | 1000.5 |
| 20260504003005 | 7 | 277 | 11.3 | 25.7 | 0.00 | 1.75 | 1.75 | 68 | 1000.4 |
| 20260504001609 | 7 | 285 | 11.3 | 24.1 | 0.00 | 1.75 | 1.75 | 75 | 1000.3 |
| 20260504000104 | 7 | 217 | 3.2 | 9.7 | 0.00 | 1.75 | 1.75 | 89 | 1000.1 |
| 20260503234553 | 7 | 291 | 1.6 | 6.4 | 0.00 | 1.75 | 1.75 | 89 | 999.9 |
| 20260503233055 | 7 | 313 | 3.2 | 9.7 | 0.00 | 1.75 | 1.75 | 88 | 999.8 |